QPF
0.01 0.00 0.00 0.00 0.00 0.00 0.00 0.00 0.00 0.00 0.00 0.00 0.00 0.00 0.00 0.00 0.00 0.00 0.00 0.00 0.00 0.00 0.00 0.00 0.00 0.00 0.00 0.00 0.00 0.01 0.02 0.03 0.03 0.03 0.03 0.03 0.03 0.02 0.03 0.03 0.02 0.01 0.00 0.00
0.00 0.00 0.00 0.00 0.00 0.00 0.00 0.00 0.00 0.00 0.00 0.00 0.00 0.00 0.00 0.00 0.00 0.00 0.00 0.00 0.00 0.00 0.00 0.00 0.00 0.00 0.00 0.00 0.00 0.01 0.02 0.02 0.03 0.02 0.02 0.02 0.03 0.03 0.02 0.02 0.01 0.00 0.00 0.00
0.00 0.00 0.00 0.00 0.00 0.00 0.00 0.00 0.00 0.00 0.00 0.00 0.00 0.00 0.00 0.00 0.00 0.00 0.00 0.00 0.00 0.00 0.00 0.00 0.00 0.00 0.00 0.00 0.00 0.01 0.01 0.01 0.02 0.02 0.02 0.02 0.02 0.01 0.01 0.00 0.00 0.00 0.00 0.00
0.00 0.00 0.00 0.00 0.00 0.00 0.00 0.00 0.00 0.00 0.00 0.00 0.00 0.00 0.00 0.00 0.00 0.00 0.00 0.00 0.00 0.00 0.00 0.00 0.00 0.00 0.00 0.00 0.00 0.01 0.01 0.01 0.02 0.01 0.01 0.01 0.01 0.01 0.00 0.00 0.00 0.00 0.00 0.00
0.00 0.00 0.00 0.00 0.00 0.00 0.00 0.00 0.00 0.00 0.00 0.00 0.00 0.00 0.00 0.00 0.00 0.00 0.00 0.00 0.00 0.00 0.00 0.00 0.00 0.00 0.00 0.00 0.00 0.00 0.01 0.01 0.01 0.01 0.01 0.01 0.00 0.00 0.00 0.00 0.00 0.00 0.00 0.00
0.00 0.00 0.00 0.00 0.00 0.00 0.00 0.00 0.00 0.00 0.00 0.00 0.00 0.00 0.00 0.00 0.00 0.00 0.00 0.00 0.00 0.00 0.00 0.00 0.00 0.00 0.00 0.00 0.00 0.00 0.00 0.01 0.01 0.01 0.01 0.01 0.00 0.00 0.00 0.00 0.00 0.00 0.00 0.00
0.00 0.00 0.00 0.00 0.00 0.00 0.00 0.00 0.00 0.00 0.00 0.00 0.00 0.00 0.00 0.00 0.00 0.00 0.00 0.00 0.00 0.00 0.00 0.00 0.00 0.00 0.00 0.00 0.00 0.00 0.00 0.01 0.01 0.01 0.00 0.00 0.00 0.00 0.00 0.00 0.00 0.00 0.00 0.00
0.00 0.00 0.00 0.00 0.00 0.00 0.00 0.00 0.00 0.00 0.00 0.00 0.00 0.00 0.00 0.00 0.00 0.00 0.00 0.00 0.00 0.00 0.00 0.00 0.00 0.00 0.00 0.00 0.00 0.00 0.00 0.00 0.00 0.00 0.00 0.00 0.00 0.00 0.00 0.00 0.00 0.00 0.00 0.00
0.00 0.00 0.00 0.00 0.00 0.00 0.00 0.00 0.00 0.00 0.00 0.00 0.00 0.00 0.00 0.00 0.00 0.00 0.00 0.00 0.00 0.00 0.00 0.00 0.00 0.00 0.00 0.00 0.00 0.00 0.00 0.00 0.00 0.00 0.00 0.00 0.00 0.00 0.00 0.00 0.00 0.00 0.00 0.00
0.00 0.00 0.00 0.00 0.00 0.00 0.00 0.00 0.00 0.00 0.00 0.00 0.00 0.00 0.00 0.00 0.00 0.00 0.00 0.00 0.00 0.00 0.00 0.00 0.00 0.00 0.00 0.00 0.00 0.00 0.00 0.00 0.00 0.00 0.00 0.00 0.00 0.00 0.00 0.00 0.00 0.00 0.00 0.00
0.00 0.00 0.00 0.00 0.00 0.00 0.00 0.00 0.00 0.00 0.00 0.00 0.00 0.00 0.00 0.00 0.00 0.00 0.00 0.00 0.00 0.00 0.00 0.00 0.00 0.00 0.00 0.00 0.00 0.00 0.00 0.00 0.00 0.00 0.00 0.00 0.00 0.00 0.00 0.00 0.00 0.00 0.00 0.00
0.00 0.00 0.00 0.00 0.00 0.00 0.00 0.00 0.00 0.00 0.00 0.00 0.00 0.00 0.00 0.00 0.00 0.00 0.00 0.00 0.00 0.00 0.00 0.00 0.00 0.00 0.00 0.00 0.00 0.00 0.00 0.00 0.00 0.00 0.00 0.00 0.00 0.00 0.00 0.00 0.00 0.00 0.00 0.00
0.00 0.00 0.00 0.00 0.00 0.00 0.00 0.00 0.00 0.00 0.00 0.00 0.00 0.00 0.00 0.00 0.00 0.00 0.00 0.00 0.00 0.00 0.00 0.00 0.00 0.00 0.00 0.00 0.00 0.00 0.00 0.00 0.00 0.00 0.00 0.00 0.00 0.00 0.00 0.00 0.00 0.00 0.00 0.00
0.00 0.00 0.00 0.00 0.00 0.00 0.00 0.00 0.00 0.00 0.00 0.00 0.00 0.00 0.00 0.00 0.00 0.00 0.00 0.00 0.00 0.00 0.00 0.00 0.00 0.00 0.00 0.00 0.00 0.00 0.00 0.00 0.00 0.00 0.00 0.00 0.00 0.00 0.00 0.00 0.00 0.00 0.00 0.00
0.00 0.00 0.00 0.00 0.00 0.00 0.00 0.00 0.00 0.00 0.00 0.00 0.00 0.00 0.00 0.00 0.00 0.00 0.00 0.00 0.00 0.00 0.00 0.00 0.00 0.00 0.00 0.00 0.00 0.00 0.00 0.00 0.00 0.00 0.00 0.00 0.00 0.00 0.00 0.00 0.00 0.00 0.00 0.01
0.00 0.00 0.00 0.00 0.00 0.00 0.00 0.00 0.00 0.00 0.00 0.00 0.00 0.00 0.00 0.00 0.00 0.00 0.00 0.00 0.00 0.00 0.00 0.00 0.00 0.00 0.00 0.00 0.00 0.00 0.00 0.00 0.00 0.00 0.00 0.00 0.00 0.00 0.00 0.00 0.00 0.00 0.00 0.00
0.00 0.00 0.00 0.00 0.00 0.00 0.00 0.00 0.00 0.00 0.00 0.00 0.00 0.00 0.00 0.00 0.00 0.00 0.00 0.00 0.00 0.00 0.00 0.00 0.00 0.00 0.00 0.00 0.00 0.00 0.00 0.00 0.00 0.00 0.00 0.00 0.00 0.00 0.00 0.00 0.00 0.00 0.00 0.00
0.00 0.00 0.00 0.00 0.00 0.00 0.00 0.00 0.00 0.00 0.00 0.00 0.00 0.00 0.00 0.00 0.00 0.00 0.00 0.00 0.00 0.00 0.00 0.00 0.00 0.00 0.00 0.00 0.00 0.00 0.00 0.00 0.00 0.00 0.00 0.00 0.00 0.00 0.00 0.00 0.00 0.00 0.00 0.00
0.00 0.00 0.00 0.00 0.00 0.00 0.00 0.00 0.00 0.00 0.00 0.00 0.00 0.00 0.00 0.00 0.00 0.00 0.00 0.00 0.00 0.00 0.00 0.00 0.00 0.00 0.00 0.00 0.00 0.00 0.00 0.00 0.00 0.00 0.00 0.00 0.00 0.00 0.00 0.01 0.01 0.01 0.01 0.01
0.00 0.00 0.00 0.00 0.00 0.00 0.00 0.00 0.00 0.00 0.00 0.00 0.00 0.00 0.00 0.00 0.00 0.00 0.00 0.00 0.00 0.00 0.00 0.00 0.00 0.00 0.00 0.00 0.00 0.00 0.00 0.00 0.00 0.00 0.00 0.00 0.01 0.01 0.01 0.01 0.02 0.01 0.01 0.00
0.00 0.00 0.00 0.00 0.00 0.00 0.00 0.00 0.00 0.00 0.00 0.00 0.00 0.00 0.00 0.00 0.00 0.00 0.00 0.00 0.00 0.00 0.00 0.00 0.00 0.00 0.00 0.00 0.00 0.00 0.00 0.00 0.00 0.00 0.01 0.01 0.01 0.01 0.02 0.02 0.01 0.01 0.01 0.00
0.00 0.00 0.00 0.00 0.00 0.00 0.00 0.00 0.00 0.00 0.00 0.00 0.00 0.00 0.00 0.00 0.00 0.00 0.00 0.00 0.00 0.00 0.00 0.00 0.00 0.00 0.00 0.00 0.00 0.00 0.01 0.00 0.01 0.01 0.01 0.02 0.02 0.02 0.02 0.02 0.01 0.01 0.00 0.00
0.00 0.00 0.00 0.00 0.00 0.00 0.00 0.00 0.00 0.00 0.00 0.00 0.00 0.00 0.00 0.00 0.00 0.00 0.00 0.00 0.00 0.00 0.00 0.00 0.00 0.00 0.00 0.00 0.00 0.00 0.00 0.01 0.01 0.01 0.01 0.02 0.02 0.02 0.02 0.02 0.01 0.01 0.00 0.01
0.00 0.00 0.00 0.00 0.00 0.00 0.00 0.00 0.00 0.00 0.00 0.00 0.00 0.00 0.00 0.00 0.00 0.00 0.00 0.00 0.00 0.01 0.00 0.00 0.01 0.01 0.01 0.01 0.01 0.01 0.01 0.01 0.02 0.02 0.03 0.03 0.03 0.03 0.02 0.02 0.01 0.01 0.01 0.01
0.00 0.00 0.00 0.00 0.00 0.00 0.00 0.00 0.00 0.00 0.00 0.00 0.00 0.00 0.00 0.00 0.00 0.00 0.01 0.01 0.01 0.01 0.01 0.01 0.02 0.02 0.02 0.02 0.02 0.02 0.03 0.03 0.04 0.04 0.04 0.04 0.04 0.04 0.03 0.03 0.03 0.02 0.02 0.01
0.00 0.00 0.00 0.00 0.00 0.00 0.00 0.00 0.00 0.00 0.00 0.00 0.00 0.00 0.00 0.01 0.01 0.01 0.01 0.01 0.01 0.02 0.02 0.02 0.02 0.02 0.03 0.03 0.03 0.04 0.04 0.05 0.05 0.05 0.05 0.05 0.05 0.04 0.04 0.03 0.03 0.02 0.02 0.01
0.00 0.00 0.00 0.00 0.00 0.00 0.00 0.00 0.00 0.00 0.00 0.00 0.00 0.01 0.01 0.01 0.01 0.01 0.01 0.01 0.01 0.01 0.02 0.02 0.02 0.02 0.03 0.03 0.03 0.04 0.04 0.04 0.04 0.04 0.04 0.04 0.04 0.03 0.03 0.02 0.02 0.02 0.02 0.02
MSLP
1014.40 1014.86 1015.24 1015.54 1015.76 1015.91 1015.99 1015.99 1015.91 1015.74 1015.50 1015.17 1014.79 1014.37 1013.94 1013.53 1013.17 1012.88 1012.67 1012.56 1012.54 1012.62 1012.80 1013.06 1013.39 1013.79 1014.24 1014.73 1015.23 1015.72 1016.18 1016.60 1016.96 1017.26 1017.49 1017.68 1017.84 1018.00 1018.16 1018.35 1018.58 1018.83 1019.12 1019.41
1013.65 1014.05 1014.40 1014.69 1014.93 1015.14 1015.32 1015.47 1015.58 1015.63 1015.61 1015.52 1015.34 1015.08 1014.75 1014.37 1013.97 1013.58 1013.22 1012.92 1012.70 1012.58 1012.56 1012.67 1012.89 1013.21 1013.62 1014.09 1014.61 1015.14 1015.66 1016.14 1016.57 1016.93 1017.24 1017.48 1017.70 1017.89 1018.07 1018.26 1018.47 1018.71 1018.96 1019.22
1013.27 1013.67 1014.03 1014.34 1014.64 1014.92 1015.19 1015.45 1015.69 1015.89 1016.04 1016.09 1016.04 1015.89 1015.63 1015.27 1014.84 1014.36 1013.88 1013.42 1013.03 1012.72 1012.53 1012.48 1012.55 1012.75 1013.07 1013.49 1013.97 1014.49 1015.02 1015.54 1016.01 1016.45 1016.82 1017.14 1017.42 1017.67 1017.89 1018.11 1018.32 1018.53 1018.76 1018.98
1013.30 1013.75 1014.16 1014.54 1014.89 1015.23 1015.57 1015.90 1016.21 1016.48 1016.69 1016.82 1016.84 1016.73 1016.50 1016.15 1015.69 1015.17 1014.60 1014.04 1013.52 1013.07 1012.73 1012.51 1012.44 1012.49 1012.68 1012.98 1013.38 1013.83 1014.33 1014.84 1015.34 1015.81 1016.25 1016.64 1016.98 1017.29 1017.57 1017.81 1018.04 1018.25 1018.45 1018.64
1013.69 1014.22 1014.70 1015.15 1015.56 1015.95 1016.32 1016.66 1016.98 1017.26 1017.47 1017.59 1017.61 1017.51 1017.28 1016.94 1016.48 1015.94 1015.34 1014.73 1014.14 1013.59 1013.14 1012.79 1012.56 1012.46 1012.49 1012.64 1012.90 1013.25 1013.66 1014.12 1014.59 1015.07 1015.54 1015.97 1016.37 1016.73 1017.05 1017.33 1017.57 1017.78 1017.97 1018.14
1014.31 1014.92 1015.48 1016.00 1016.46 1016.87 1017.24 1017.56 1017.84 1018.06 1018.22 1018.30 1018.28 1018.16 1017.93 1017.59 1017.15 1016.63 1016.05 1015.43 1014.82 1014.23 1013.70 1013.24 1012.88 1012.63 1012.50 1012.49 1012.59 1012.79 1013.08 1013.44 1013.85 1014.29 1014.74 1015.19 1015.61 1016.00 1016.34 1016.64 1016.89 1017.11 1017.29 1017.44
1015.02 1015.70 1016.33 1016.89 1017.38 1017.80 1018.14 1018.42 1018.63 1018.78 1018.86 1018.86 1018.79 1018.64 1018.40 1018.08 1017.68 1017.20 1016.67 1016.10 1015.51 1014.92 1014.36 1013.83 1013.37 1012.99 1012.70 1012.52 1012.46 1012.49 1012.64 1012.87 1013.17 1013.53 1013.93 1014.34 1014.73 1015.11 1015.45 1015.75 1016.00 1016.22 1016.40 1016.55
1015.70 1016.43 1017.10 1017.69 1018.18 1018.59 1018.89 1019.11 1019.26 1019.32 1019.33 1019.26 1019.14 1018.96 1018.72 1018.42 1018.07 1017.66 1017.21 1016.70 1016.17 1015.61 1015.04 1014.48 1013.95 1013.47 1013.05 1012.73 1012.50 1012.37 1012.36 1012.44 1012.61 1012.85 1013.14 1013.47 1013.80 1014.13 1014.43 1014.70 1014.94 1015.14 1015.33 1015.49
1016.29 1017.03 1017.71 1018.30 1018.78 1019.16 1019.43 1019.60 1019.69 1019.69 1019.63 1019.52 1019.36 1019.16 1018.93 1018.67 1018.37 1018.03 1017.65 1017.22 1016.75 1016.23 1015.69 1015.12 1014.55 1014.00 1013.49 1013.05 1012.68 1012.41 1012.24 1012.16 1012.18 1012.27 1012.43 1012.63 1012.86 1013.09 1013.31 1013.53 1013.73 1013.92 1014.10 1014.28
1016.79 1017.51 1018.15 1018.72 1019.18 1019.52 1019.76 1019.90 1019.95 1019.92 1019.83 1019.69 1019.52 1019.32 1019.10 1018.86 1018.61 1018.32 1018.01 1017.64 1017.23 1016.76 1016.25 1015.70 1015.12 1014.53 1013.96 1013.43 1012.95 1012.56 1012.24 1012.02 1011.88 1011.81 1011.81 1011.86 1011.94 1012.04 1012.16 1012.29 1012.43 1012.58 1012.75 1012.95
1017.23 1017.89 1018.49 1019.00 1019.42 1019.74 1019.96 1020.09 1020.12 1020.08 1019.98 1019.84 1019.66 1019.47 1019.27 1019.05 1018.82 1018.58 1018.30 1017.98 1017.60 1017.18 1016.69 1016.15 1015.58 1014.98 1014.38 1013.80 1013.25 1012.76 1012.33 1011.97 1011.68 1011.45 1011.28 1011.16 1011.07 1011.02 1011.00 1011.02 1011.08 1011.18 1011.33 1011.52
1017.66 1018.24 1018.77 1019.23 1019.61 1019.90 1020.10 1020.22 1020.26 1020.23 1020.14 1020.01 1019.84 1019.66 1019.46 1019.25 1019.03 1018.79 1018.52 1018.21 1017.85 1017.44 1016.98 1016.46 1015.89 1015.30 1014.69 1014.09 1013.50 1012.94 1012.43 1011.96 1011.53 1011.15 1010.82 1010.52 1010.26 1010.05 1009.88 1009.76 1009.72 1009.74 1009.84 1010.03
1018.10 1018.61 1019.07 1019.46 1019.79 1020.06 1020.25 1020.36 1020.41 1020.40 1020.33 1020.21 1020.06 1019.88 1019.67 1019.45 1019.22 1018.96 1018.67 1018.34 1017.98 1017.56 1017.10 1016.59 1016.04 1015.46 1014.86 1014.25 1013.64 1013.05 1012.48 1011.92 1011.39 1010.88 1010.40 1009.94 1009.51 1009.13 1008.80 1008.54 1008.37 1008.30 1008.34 1008.48
1018.57 1019.00 1019.38 1019.72 1020.01 1020.23 1020.41 1020.52 1020.58 1020.57 1020.52 1020.41 1020.26 1020.08 1019.86 1019.62 1019.35 1019.05 1018.72 1018.36 1017.96 1017.53 1017.05 1016.54 1016.00 1015.44 1014.85 1014.26 1013.65 1013.05 1012.44 1011.83 1011.22 1010.61 1010.00 1009.40 1008.82 1008.28 1007.80 1007.39 1007.09 1006.90 1006.84 1006.92
1019.01 1019.38 1019.71 1019.99 1020.22 1020.42 1020.57 1020.67 1020.72 1020.72 1020.67 1020.56 1020.41 1020.21 1019.98 1019.70 1019.39 1019.04 1018.67 1018.26 1017.82 1017.35 1016.86 1016.34 1015.80 1015.25 1014.69 1014.11 1013.52 1012.92 1012.30 1011.67 1011.00 1010.32 1009.61 1008.90 1008.19 1007.51 1006.88 1006.33 1005.88 1005.56 1005.39 1005.37
1019.39 1019.71 1019.99 1020.22 1020.41 1020.56 1020.67 1020.75 1020.78 1020.77 1020.71 1020.60 1020.44 1020.23 1019.97 1019.66 1019.31 1018.92 1018.50 1018.04 1017.56 1017.06 1016.54 1016.01 1015.47 1014.93 1014.38 1013.83 1013.26 1012.68 1012.06 1011.42 1010.73 1010.00 1009.23 1008.43 1007.62 1006.82 1006.06 1005.37 1004.78 1004.33 1004.02 1003.88
1019.65 1019.94 1020.17 1020.36 1020.51 1020.61 1020.69 1020.73 1020.73 1020.70 1020.62 1020.50 1020.32 1020.10 1019.82 1019.49 1019.11 1018.69 1018.23 1017.73 1017.22 1016.68 1016.14 1015.60 1015.06 1014.52 1013.98 1013.45 1012.90 1012.34 1011.74 1011.10 1010.40 1009.65 1008.84 1007.99 1007.10 1006.20 1005.34 1004.52 1003.80 1003.20 1002.76 1002.48
1019.76 1020.03 1020.24 1020.39 1020.49 1020.55 1020.58 1020.58 1020.55 1020.48 1020.38 1020.24 1020.05 1019.82 1019.53 1019.19 1018.80 1018.35 1017.87 1017.36 1016.82 1016.26 1015.70 1015.15 1014.60 1014.06 1013.53 1013.01 1012.48 1011.93 1011.35 1010.72 1010.03 1009.27 1008.44 1007.55 1006.61 1005.64 1004.68 1003.77 1002.92 1002.20 1001.62 1001.20
1019.72 1019.98 1020.16 1020.28 1020.34 1020.36 1020.35 1020.30 1020.23 1020.14 1020.01 1019.86 1019.66 1019.42 1019.13 1018.80 1018.40 1017.96 1017.48 1016.95 1016.40 1015.83 1015.26 1014.69 1014.13 1013.59 1013.06 1012.54 1012.01 1011.47 1010.89 1010.27 1009.58 1008.83 1007.99 1007.08 1006.10 1005.09 1004.06 1003.06 1002.12 1001.28 1000.59 1000.05
1019.56 1019.81 1019.98 1020.07 1020.10 1020.08 1020.03 1019.94 1019.84 1019.71 1019.57 1019.40 1019.20 1018.97 1018.69 1018.36 1017.98 1017.55 1017.07 1016.54 1015.99 1015.41 1014.83 1014.25 1013.67 1013.11 1012.57 1012.03 1011.49 1010.94 1010.36 1009.74 1009.05 1008.28 1007.44 1006.51 1005.52 1004.47 1003.40 1002.35 1001.34 1000.42 999.64 999.01
1019.33 1019.58 1019.73 1019.80 1019.81 1019.76 1019.67 1019.56 1019.42 1019.28 1019.12 1018.94 1018.74 1018.51 1018.24 1017.93 1017.56 1017.14 1016.67 1016.15 1015.59 1015.01 1014.41 1013.81 1013.21 1012.63 1012.05 1011.48 1010.92 1010.34 1009.73 1009.08 1008.37 1007.60 1006.74 1005.80 1004.79 1003.73 1002.65 1001.56 1000.52 999.57 998.73 998.06
1019.07 1019.30 1019.45 1019.51 1019.50 1019.43 1019.33 1019.19 1019.04 1018.88 1018.71 1018.53 1018.33 1018.10 1017.83 1017.53 1017.17 1016.75 1016.29 1015.77 1015.21 1014.61 1014.00 1013.37 1012.74 1012.11 1011.49 1010.87 1010.25 1009.62 1008.97 1008.28 1007.53 1006.73 1005.85 1004.90 1003.89 1002.83 1001.74 1000.67 999.63 998.68 997.84 997.17
1018.80 1019.04 1019.18 1019.24 1019.22 1019.15 1019.03 1018.89 1018.73 1018.56 1018.38 1018.19 1017.99 1017.75 1017.49 1017.18 1016.81 1016.40 1015.92 1015.40 1014.82 1014.20 1013.56 1012.89 1012.21 1011.53 1010.85 1010.17 1009.48 1008.79 1008.06 1007.31 1006.51 1005.66 1004.76 1003.79 1002.78 1001.74 1000.68 999.64 998.65 997.74 996.96 996.33
1018.56 1018.79 1018.93 1018.99 1018.98 1018.92 1018.81 1018.67 1018.51 1018.34 1018.15 1017.95 1017.73 1017.49 1017.20 1016.88 1016.50 1016.06 1015.57 1015.02 1014.41 1013.76 1013.08 1012.37 1011.64 1010.90 1010.14 1009.38 1008.62 1007.83 1007.03 1006.20 1005.34 1004.44 1003.50 1002.52 1001.52 1000.50 999.50 998.52 997.61 996.79 996.10 995.56
1018.34 1018.57 1018.72 1018.79 1018.79 1018.74 1018.65 1018.52 1018.37 1018.20 1018.01 1017.80 1017.56 1017.29 1016.98 1016.62 1016.21 1015.74 1015.21 1014.62 1013.98 1013.29 1012.57 1011.80 1011.01 1010.20 1009.38 1008.54 1007.68 1006.81 1005.92 1005.01 1004.08 1003.13 1002.16 1001.17 1000.19 999.21 998.27 997.39 996.58 995.88 995.31 994.90
1018.15 1018.37 1018.53 1018.61 1018.64 1018.61 1018.54 1018.43 1018.29 1018.12 1017.93 1017.70 1017.44 1017.14 1016.79 1016.39 1015.94 1015.42 1014.85 1014.22 1013.54 1012.81 1012.03 1011.22 1010.37 1009.50 1008.60 1007.68 1006.74 1005.79 1004.82 1003.84 1002.85 1001.85 1000.85 999.87 998.92 998.00 997.14 996.36 995.68 995.11 994.68 994.41
1017.97 1018.19 1018.36 1018.46 1018.51 1018.51 1018.47 1018.38 1018.26 1018.09 1017.89 1017.65 1017.36 1017.02 1016.63 1016.18 1015.68 1015.12 1014.50 1013.82 1013.10 1012.32 1011.51 1010.65 1009.75 1008.83 1007.87 1006.89 1005.89 1004.87 1003.84 1002.80 1001.76 1000.74 999.74 998.78 997.86 997.01 996.25 995.58 995.02 994.59 994.30 994.16
Thickness
5737 5743 5744 5741 5739 5740 5736 5735 5727 5734 5740 5748 5754 5757 5758 5756 5754 5750 5746 5743 5740 5736 5734 5732 5730 5729 5727 5725 5723 5721 5717 5714 5713 5712 5710 5707 5704 5702 5701 5699 5699 5697 5695 5692
5735 5746 5746 5741 5744 5744 5742 5743 5740 5740 5743 5761 5765 5764 5759 5756 5752 5746 5744 5743 5740 5738 5735 5732 5731 5729 5727 5725 5723 5720 5716 5714 5712 5711 5708 5705 5702 5700 5698 5696 5695 5693 5691 5688
5725 5739 5737 5729 5746 5747 5745 5750 5747 5738 5747 5761 5758 5757 5757 5755 5752 5748 5746 5744 5741 5739 5737 5735 5734 5732 5728 5725 5723 5719 5715 5712 5710 5708 5705 5702 5700 5697 5694 5692 5690 5688 5685 5682
5723 5724 5707 5739 5766 5761 5752 5753 5757 5755 5757 5759 5759 5760 5761 5759 5754 5749 5748 5745 5743 5741 5739 5738 5736 5733 5730 5726 5721 5717 5714 5710 5708 5705 5702 5699 5696 5693 5690 5688 5685 5682 5680 5677
5717 5710 5719 5742 5758 5758 5747 5743 5757 5755 5757 5759 5761 5756 5753 5758 5757 5753 5751 5748 5746 5744 5741 5739 5736 5733 5729 5724 5720 5715 5712 5709 5706 5703 5699 5695 5692 5689 5687 5684 5681 5679 5676 5673
5715 5705 5705 5731 5755 5764 5751 5732 5755 5757 5753 5754 5751 5733 5737 5754 5755 5753 5751 5748 5745 5743 5740 5736 5734 5732 5726 5721 5717 5713 5711 5708 5705 5702 5697 5693 5690 5687 5684 5681 5677 5675 5672 5669
5709 5707 5719 5743 5754 5754 5722 5724 5752 5755 5752 5750 5744 5741 5748 5753 5751 5750 5747 5745 5743 5739 5735 5733 5732 5727 5721 5718 5715 5713 5710 5706 5702 5698 5694 5690 5686 5683 5680 5676 5673 5670 5667 5664
5713 5704 5710 5742 5745 5735 5733 5748 5750 5749 5749 5747 5745 5747 5748 5747 5744 5743 5741 5739 5737 5733 5730 5729 5728 5723 5717 5713 5713 5710 5706 5701 5697 5694 5691 5687 5682 5678 5675 5671 5666 5663 5660 5658
5722 5718 5732 5742 5741 5744 5747 5742 5743 5742 5744 5743 5741 5740 5741 5739 5738 5737 5735 5733 5731 5727 5724 5723 5722 5718 5712 5710 5708 5705 5700 5696 5692 5689 5685 5682 5677 5673 5669 5665 5661 5658 5654 5651
5722 5726 5733 5737 5740 5741 5741 5739 5740 5740 5739 5739 5735 5735 5734 5733 5731 5730 5729 5726 5724 5721 5717 5715 5715 5712 5709 5706 5703 5699 5694 5690 5687 5683 5679 5676 5672 5668 5664 5660 5656 5653 5649 5645
5715 5721 5725 5728 5730 5732 5734 5735 5734 5735 5735 5734 5732 5730 5729 5727 5726 5724 5722 5721 5718 5715 5711 5709 5708 5706 5704 5701 5697 5692 5688 5684 5681 5677 5674 5670 5666 5662 5659 5656 5652 5647 5644 5640
5704 5714 5715 5715 5723 5727 5725 5725 5726 5725 5726 5728 5727 5725 5724 5722 5721 5719 5716 5715 5712 5709 5705 5704 5702 5699 5697 5695 5691 5685 5681 5678 5674 5671 5667 5664 5659 5656 5653 5650 5647 5643 5639 5635
5713 5715 5714 5715 5718 5719 5718 5719 5720 5720 5719 5719 5721 5721 5719 5716 5715 5713 5710 5708 5705 5703 5700 5698 5695 5692 5691 5688 5684 5680 5675 5671 5667 5664 5661 5656 5653 5648 5644 5641 5638 5635 5631 5627
5709 5707 5703 5704 5705 5710 5711 5712 5714 5714 5714 5714 5713 5713 5711 5709 5707 5705 5703 5701 5700 5697 5694 5692 5688 5685 5684 5681 5677 5673 5669 5665 5661 5657 5653 5650 5646 5642 5638 5634 5629 5625 5623 5619
5698 5697 5695 5697 5698 5699 5701 5702 5701 5701 5702 5703 5704 5703 5702 5699 5697 5696 5696 5694 5692 5689 5686 5684 5680 5677 5676 5673 5668 5664 5660 5656 5653 5649 5645 5642 5638 5635 5631 5627 5623 5619 5615 5611
5687 5688 5687 5686 5685 5687 5688 5689 5688 5690 5691 5692 5692 5692 5692 5691 5690 5688 5687 5686 5682 5678 5677 5675 5671 5669 5667 5663 5659 5654 5650 5648 5644 5639 5636 5632 5629 5625 5621 5618 5614 5610 5606 5602
5673 5672 5673 5673 5675 5676 5678 5679 5680 5681 5682 5682 5682 5683 5683 5681 5679 5677 5676 5676 5673 5671 5668 5665 5662 5660 5657 5653 5649 5644 5640 5637 5633 5629 5625 5622 5618 5615 5611 5607 5603 5600 5597 5593
5668 5668 5668 5667 5667 5667 5668 5670 5671 5671 5672 5673 5673 5673 5671 5669 5667 5666 5665 5664 5661 5658 5657 5654 5651 5648 5645 5642 5638 5633 5629 5626 5622 5618 5614 5611 5607 5603 5599 5595 5592 5588 5584 5581
5658 5658 5658 5658 5659 5658 5659 5659 5660 5661 5662 5662 5661 5660 5659 5658 5657 5655 5653 5650 5647 5643 5642 5641 5638 5635 5631 5628 5625 5621 5617 5614 5610 5607 5603 5599 5594 5591 5587 5583 5580 5576 5572 5568
5645 5645 5646 5646 5647 5647 5646 5648 5649 5649 5650 5649 5648 5646 5645 5644 5643 5641 5639 5635 5633 5631 5630 5627 5623 5620 5617 5614 5610 5607 5604 5601 5597 5593 5589 5585 5581 5577 5574 5570 5566 5562 5558 5554
5631 5631 5632 5632 5633 5634 5634 5635 5635 5635 5636 5636 5634 5632 5631 5630 5629 5627 5623 5619 5619 5617 5615 5612 5609 5605 5602 5598 5595 5592 5589 5586 5583 5579 5575 5571 5567 5563 5559 5555 5552 5548 5544 5540
5618 5619 5619 5620 5620 5621 5622 5622 5622 5621 5621 5620 5620 5619 5617 5615 5614 5611 5609 5606 5604 5602 5599 5596 5593 5589 5586 5583 5580 5577 5574 5571 5568 5564 5560 5556 5552 5548 5544 5541 5537 5533 5529 5525
5607 5608 5607 5607 5608 5608 5608 5608 5607 5606 5605 5605 5604 5603 5602 5600 5598 5595 5592 5591 5589 5586 5583 5580 5577 5574 5571 5568 5565 5562 5559 5556 5552 5549 5545 5541 5537 5533 5529 5526 5522 5518 5514 5511
5595 5595 5595 5595 5595 5594 5593 5593 5592 5592 5591 5590 5589 5588 5587 5585 5583 5581 5578 5576 5573 5570 5567 5564 5561 5559 5555 5552 5550 5547 5543 5540 5536 5532 5529 5525 5521 5517 5513 5510 5506 5503 5499 5496
5580 5581 5581 5581 5580 5580 5580 5579 5578 5577 5576 5575 5574 5573 5572 5570 5567 5565 5563 5560 5557 5554 5551 5549 5546 5543 5539 5536 5533 5530 5526 5523 5520 5516 5513 5509 5505 5501 5498 5494 5491 5487 5484 5480
5567 5566 5566 5566 5566 5565 5565 5564 5562 5561 5560 5559 5558 5557 5555 5553 5551 5549 5547 5544 5541 5538 5535 5532 5529 5526 5523 5520 5517 5513 5510 5506 5503 5499 5497 5493 5490 5486 5482 5479 5476 5472 5469 5466
5553 5553 5552 5551 5551 5551 5550 5549 5547 5546 5544 5543 5541 5540 5539 5537 5535 5533 5530 5527 5525 5522 5519 5516 5513 5510 5507 5504 5500 5497 5494 5491 5487 5484 5481 5478 5474 5471 5467 5464 5461 5458 5455 5452